STARLINK-33837, 63501

Orbit data source: Space-Track

STARLINK-33837, 63501 is a payload satellite owned by SpaceX/Seattle (US) in LEO that was launched on Mon, 07 Apr 2025 UTC via an FALCON 9 launch vehicle from the Air Force Western Test Range (AFWTR). Payload-class satellites include a variety of spacecraft equipped with specific instruments for various scientific and technological missions. These include communications satellites like Starlink; space stations such as the ISS; scientific satellites like the Hubble; Earth observation satellites from companies like Planet Labs, Umbra, and HawkEye 360; GPS; miniature CubeSats for education and research; and military/defense satellites.

Loading next visibility...
Identifier
63501, 2025-071J
Orbit
LEO
Country
Flag of USUS
Related business
Manufacturer
SpaceX/Seattle
Mission
Operational Commercial Communications
Bus & Motor
STARLINK V2MO, Unknown motor
Mass
575 kg wet, ~530 kg dry
Launch date (UTC)
2025-04-07 (1 year ago)
Launch vehicle
FALCON 9
Launch site
Air Force Western Test Range (AFWTR)
Object type
Payload
Rocket body
Debris
Shape & HBR
Box + 2 Pan, 17.7 m
Radar Cross Section
36.964 m², Large (>1 m²)

Expand to show TLE details & history
Last TLE update: 23 hours ago

TLE from 23 hours ago
0 STARLINK-33837
1 63501U 25071J   26175.23994154  .00006527  00000-0  22181-3 0  9995
2 63501  53.1601   4.9805 0001264  91.1713 268.9433 15.31711811 69025
Epoch: 2026-06-24T05:45Z
TLE epoch observation values (Epoch: 2026-06-24T05:45:30.949Z)
Latitude
-0.00002°
Longitude
6.20153°
Altitude
471.621 km
Speed
7.631 km/s
True Right ascension
00h 19m 55s
True Declination
0° 00' 00"
Sunlit
Object was in daylight at epoch
Visualization orbit readout
Latitude
Unknown
Longitude
Unknown
Altitude
Unknown
Speed
Unknown
Apparent Right ascension
Unknown
Apparent Declination
Unknown
Sunlit
N/A
Visualization observer readout
Local Sidereal Time
16:10:36
Azimuth
Unknown
Elevation
Unknown
Doppler factor
Unknown
Orbital elements
Apogee altitude
471.827 km
Perigee altitude
470.096 km
Semi-major axis
6,849.098 km
Eccentricity
0.00013
Inclination
53.1601°
RAAN
4.9805°
Arg. of periapsis
91.1713°
True anomaly
268.92882°
Mean anomaly
268.9433°
Eccentric anomaly
268.93606°
Mean motion
3.82907 °/min
Orbital period
94.02 mins
BSTAR
0.00022181
Loading maneuver chart data...
Computing Atmospheric mass density...
Loading historical data...
Loading historical data...
Loading historical data...
Loading historical data...
Loading historical data...
Loading historical data...
Loading historical data...

Documentation

Showing up to 5 results
|